Time,TemperatureF,DewpointF,PressureIn,WindDirection,WindDirectionDegrees,WindSpeedMPH,WindSpeedGustMPH,Humidity,HourlyPrecipIn,Conditions,Clouds,dailyrainin,SoftwareType,DateUTC
2013-05-18 00:02:00,26.6,19.5,0.00,ENE,73,29.2,-999.0,74,0.00,,,-99.99,,2013-05-18 08:02:00,
2013-05-18 00:07:00,26.7,18.9,0.00,East,83,23.1,-999.0,72,0.00,,,-99.99,,2013-05-18 08:07:00,
2013-05-18 00:12:00,26.9,19.1,0.00,East,86,20.0,-999.0,71,0.00,,,-99.99,,2013-05-18 08:12:00,
2013-05-18 00:17:00,26.7,19.2,0.00,East,85,27.8,-999.0,72,0.00,,,-99.99,,2013-05-18 08:17:00,
2013-05-18 00:23:00,26.6,19.1,0.00,East,89,22.8,-999.0,72,0.00,,,-99.99,,2013-05-18 08:23:00,
2013-05-18 00:28:00,26.5,17.5,0.00,NE,56,27.9,-999.0,68,0.00,,,-99.99,,2013-05-18 08:28:00,
2013-05-18 00:33:00,26.4,18.4,0.00,East,91,30.2,-999.0,71,0.01,,,-99.99,,2013-05-18 08:33:00,
2013-05-18 00:38:00,26.3,17.8,0.00,East,87,29.6,-999.0,69,0.03,,,-99.99,,2013-05-18 08:38:00,
2013-05-18 00:43:00,26.4,18.0,0.00,East,85,27.1,-999.0,70,0.12,,,-99.99,,2013-05-18 08:43:00,
2013-05-18 00:48:00,26.4,17.9,0.00,East,99,28.7,-999.0,69,0.14,,,-99.99,,2013-05-18 08:48:00,
2013-05-18 00:53:00,26.4,17.8,0.00,East,86,35.4,-999.0,69,0.17,,,-99.99,,2013-05-18 08:53:00,
2013-05-18 00:58:00,26.3,17.5,0.00,ENE,78,25.7,-999.0,68,0.18,,,-99.99,,2013-05-18 08:58:00,
2013-05-18 01:03:00,26.1,17.1,0.00,East,95,16.8,-999.0,68,0.00,,,-99.99,,2013-05-18 09:03:00,
2013-05-18 01:08:00,26.1,17.3,0.00,East,85,25.6,-999.0,69,0.00,,,-99.99,,2013-05-18 09:08:00,
2013-05-18 01:13:00,25.9,17.4,0.00,East,82,17.7,-999.0,69,0.00,,,-99.99,,2013-05-18 09:13:00,
2013-05-18 01:18:00,26.0,17.2,0.00,East,88,20.7,-999.0,69,0.00,,,-99.99,,2013-05-18 09:18:00,
2013-05-18 01:23:00,26.3,16.3,0.00,ENE,72,26.7,-999.0,65,0.00,,,-99.99,,2013-05-18 09:23:00,
2013-05-18 01:28:00,25.9,15.4,0.00,East,83,27.0,-999.0,63,0.00,,,-99.99,,2013-05-18 09:28:00,
2013-05-18 01:33:00,26.0,16.8,0.00,ENE,61,28.7,-999.0,67,0.00,,,-99.99,,2013-05-18 09:33:00,
2013-05-18 01:38:00,25.8,16.6,0.00,NE,51,13.5,-999.0,67,0.00,,,-99.99,,2013-05-18 09:38:00,
2013-05-18 01:43:00,25.7,17.0,0.00,East,86,25.0,-999.0,69,0.00,,,-99.99,,2013-05-18 09:43:00,
2013-05-18 01:48:00,25.8,16.3,0.00,ESE,111,13.9,-999.0,66,0.00,,,-99.99,,2013-05-18 09:48:00,
2013-05-18 01:53:00,25.9,15.1,0.00,East,81,6.5,-999.0,62,0.00,,,-99.99,,2013-05-18 09:53:00,
2013-05-18 01:58:00,25.8,14.7,0.00,East,83,29.5,-999.0,62,0.00,,,-99.99,,2013-05-18 09:58:00,
2013-05-18 02:03:00,25.9,15.2,0.00,East,86,22.5,-999.0,63,0.00,,,-99.99,,2013-05-18 10:03:00,
2013-05-18 02:08:00,26.0,14.8,0.00,East,93,15.3,-999.0,62,0.06,,,-99.99,,2013-05-18 10:08:00,
2013-05-18 02:13:00,25.8,14.6,0.00,East,82,24.1,-999.0,62,0.06,,,-99.99,,2013-05-18 10:13:00,
2013-05-18 02:18:00,25.8,14.7,0.00,ENE,76,16.5,-999.0,62,0.06,,,-99.99,,2013-05-18 10:18:00,
2013-05-18 02:24:00,25.7,15.8,0.00,ESE,103,8.5,-999.0,65,0.06,,,-99.99,,2013-05-18 10:24:00,
2013-05-18 02:29:00,25.6,16.8,0.00,East,96,21.7,-999.0,68,0.06,,,-99.99,,2013-05-18 10:29:00,
2013-05-18 02:34:00,25.2,17.0,0.00,ENE,73,10.1,-999.0,70,0.06,,,-99.99,,2013-05-18 10:34:00,
2013-05-18 02:39:00,25.2,16.9,0.00,East,85,24.9,-999.0,70,0.06,,,-99.99,,2013-05-18 10:39:00,
2013-05-18 02:44:00,25.1,17.1,0.00,NE,53,8.2,-999.0,71,0.06,,,-99.99,,2013-05-18 10:44:00,
2013-05-18 02:49:00,25.2,16.3,0.00,East,82,20.2,-999.0,68,0.06,,,-99.99,,2013-05-18 10:49:00,
2013-05-18 02:54:00,25.2,16.1,0.00,ESE,103,18.6,-999.0,68,0.06,,,-99.99,,2013-05-18 10:54:00,
2013-05-18 03:00:00,25.2,16.6,0.00,East,96,15.8,-999.0,69,0.00,,,-99.99,,2013-05-18 11:00:00,
2013-05-18 03:04:00,25.3,16.8,0.00,ENE,59,14.7,-999.0,69,0.00,,,-99.99,,2013-05-18 11:04:00,
2013-05-18 03:09:00,25.0,17.4,0.00,East,97,16.6,-999.0,72,0.00,,,-99.99,,2013-05-18 11:09:00,
2013-05-18 03:14:00,25.0,16.9,0.00,ENE,64,21.9,-999.0,71,0.00,,,-99.99,,2013-05-18 11:14:00,
2013-05-18 03:19:00,25.0,17.0,0.00,East,91,17.8,-999.0,71,0.01,,,-99.99,,2013-05-18 11:19:00,
2013-05-18 03:24:00,25.2,17.1,0.00,ENE,60,17.8,-999.0,71,0.01,,,-99.99,,2013-05-18 11:24:00,
2013-05-18 03:29:00,24.9,17.1,0.00,ENE,68,19.0,-999.0,71,0.01,,,-99.99,,2013-05-18 11:29:00,
2013-05-18 03:34:00,24.9,16.6,0.00,East,87,22.0,-999.0,70,0.01,,,-99.99,,2013-05-18 11:34:00,
2013-05-18 03:39:00,24.9,16.8,0.00,NE,46,9.7,-999.0,70,0.01,,,-99.99,,2013-05-18 11:39:00,
2013-05-18 03:44:00,24.9,16.5,0.00,East,84,8.5,-999.0,70,0.01,,,-99.99,,2013-05-18 11:44:00,
2013-05-18 03:49:00,24.9,16.5,0.00,ENE,76,7.4,-999.0,70,0.01,,,-99.99,,2013-05-18 11:49:00,
2013-05-18 03:54:00,24.8,16.9,0.00,East,101,14.0,-999.0,71,0.01,,,-99.99,,2013-05-18 11:54:00,
2013-05-18 04:00:00,24.7,17.0,0.00,East,92,10.9,-999.0,72,0.00,,,-99.99,,2013-05-18 12:00:00,
2013-05-18 04:04:00,24.7,17.2,0.00,ENE,68,10.3,-999.0,72,0.00,,,-99.99,,2013-05-18 12:04:00,
2013-05-18 04:09:00,24.6,17.8,0.00,East,79,11.8,-999.0,75,0.00,,,-99.99,,2013-05-18 12:09:00,
2013-05-18 04:14:00,24.3,18.0,0.00,ENE,76,20.6,-999.0,76,0.00,,,-99.99,,2013-05-18 12:14:00,
2013-05-18 04:19:00,24.1,18.5,0.00,East,96,14.9,-999.0,78,0.00,,,-99.99,,2013-05-18 12:19:00,
2013-05-18 04:24:00,23.9,18.6,0.00,ENE,73,17.9,-999.0,80,0.00,,,-99.99,,2013-05-18 12:24:00,
2013-05-18 04:29:00,23.7,18.5,0.00,ESE,112,15.6,-999.0,80,0.00,,,-99.99,,2013-05-18 12:29:00,
2013-05-18 04:34:00,23.8,19.0,0.00,ESE,111,0.9,-999.0,81,0.00,,,-99.99,,2013-05-18 12:34:00,
2013-05-18 04:39:00,23.8,18.4,0.00,NE,55,6.1,-999.0,79,0.00,,,-99.99,,2013-05-18 12:39:00,
2013-05-18 04:44:00,23.7,18.2,0.00,ENE,70,11.0,-999.0,79,0.00,,,-99.99,,2013-05-18 12:44:00,
2013-05-18 04:49:00,23.6,18.4,0.00,ENE,62,8.7,-999.0,80,0.00,,,-99.99,,2013-05-18 12:49:00,
2013-05-18 04:54:00,23.8,17.7,0.00,ENE,78,11.9,-999.0,77,0.00,,,-99.99,,2013-05-18 12:54:00,
2013-05-18 05:00:00,23.8,17.9,0.00,East,87,9.7,-999.0,77,0.00,,,-99.99,,2013-05-18 13:00:00,
2013-05-18 05:04:00,23.8,17.4,0.00,East,80,18.1,-999.0,76,0.00,,,-99.99,,2013-05-18 13:04:00,
2013-05-18 05:09:00,23.9,16.9,0.00,ENE,72,11.6,-999.0,74,0.00,,,-99.99,,2013-05-18 13:09:00,
2013-05-18 05:14:00,24.0,17.1,0.00,ENE,70,14.1,-999.0,74,0.00,,,-99.99,,2013-05-18 13:14:00,
2013-05-18 05:19:00,23.9,16.6,0.00,East,89,15.3,-999.0,73,0.00,,,-99.99,,2013-05-18 13:19:00,
2013-05-18 05:24:00,23.8,16.1,0.00,ENE,66,23.3,-999.0,71,0.00,,,-99.99,,2013-05-18 13:24:00,
2013-05-18 05:29:00,23.6,16.2,0.00,SE,131,8.7,-999.0,72,0.00,,,-99.99,,2013-05-18 13:29:00,
2013-05-18 05:34:00,24.0,16.6,0.00,East,96,17.8,-999.0,73,0.00,,,-99.99,,2013-05-18 13:34:00,
2013-05-18 05:39:00,23.9,15.7,0.00,East,91,21.9,-999.0,70,0.00,,,-99.99,,2013-05-18 13:39:00,
2013-05-18 05:44:00,23.8,16.1,0.00,East,96,11.5,-999.0,71,0.00,,,-99.99,,2013-05-18 13:44:00,
2013-05-18 05:49:00,23.9,15.3,0.00,East,84,16.3,-999.0,69,0.00,,,-99.99,,2013-05-18 13:49:00,
2013-05-18 05:54:00,23.7,15.1,0.00,ENE,76,15.2,-999.0,69,0.00,,,-99.99,,2013-05-18 13:54:00,
2013-05-18 06:00:00,23.8,15.2,0.00,East,83,15.3,-999.0,69,0.00,,,-99.99,,2013-05-18 14:00:00,
2013-05-18 06:05:00,24.1,15.1,0.00,ENE,75,14.9,-999.0,68,0.00,,,-99.99,,2013-05-18 14:05:00,
2013-05-18 06:10:00,23.9,15.1,0.00,ESE,104,7.6,-999.0,68,0.00,,,-99.99,,2013-05-18 14:10:00,
2013-05-18 06:15:00,23.9,14.9,0.00,ENE,76,12.1,-999.0,68,0.00,,,-99.99,,2013-05-18 14:15:00,
2013-05-18 06:20:00,24.0,14.7,0.00,East,81,18.0,-999.0,67,0.00,,,-99.99,,2013-05-18 14:20:00,
2013-05-18 06:25:00,24.0,14.8,0.00,ENE,58,8.2,-999.0,67,0.00,,,-99.99,,2013-05-18 14:25:00,
2013-05-18 06:30:00,24.0,15.2,0.00,East,86,14.8,-999.0,68,0.00,,,-99.99,,2013-05-18 14:30:00,
2013-05-18 06:35:00,23.7,14.9,0.00,SE,137,8.1,-999.0,68,0.00,,,-99.99,,2013-05-18 14:35:00,
2013-05-18 06:40:00,23.8,14.7,0.00,ENE,74,18.2,-999.0,67,0.00,,,-99.99,,2013-05-18 14:40:00,
2013-05-18 06:45:00,24.0,14.8,0.00,East,85,19.5,-999.0,67,0.00,,,-99.99,,2013-05-18 14:45:00,
2013-05-18 06:50:00,23.9,14.8,0.00,ENE,77,15.3,-999.0,67,0.00,,,-99.99,,2013-05-18 14:50:00,
2013-05-18 06:55:00,24.0,14.9,0.00,East,88,6.3,-999.0,67,0.00,,,-99.99,,2013-05-18 14:55:00,
2013-05-18 07:00:00,23.8,14.6,0.00,ENE,68,23.1,-999.0,67,0.00,,,-99.99,,2013-05-18 15:00:00,
2013-05-18 07:05:00,24.0,15.1,0.00,ENE,70,9.2,-999.0,68,0.00,,,-99.99,,2013-05-18 15:05:00,
2013-05-18 07:10:00,24.0,15.4,0.00,East,83,7.4,-999.0,69,0.00,,,-99.99,,2013-05-18 15:10:00,
2013-05-18 07:15:00,24.0,15.6,0.00,ENE,63,12.5,-999.0,69,0.00,,,-99.99,,2013-05-18 15:15:00,
2013-05-18 07:20:00,24.0,15.1,0.00,East,81,16.8,-999.0,68,0.00,,,-99.99,,2013-05-18 15:20:00,
2013-05-18 07:25:00,24.2,15.1,0.00,ESE,106,10.5,-999.0,68,0.00,,,-99.99,,2013-05-18 15:25:00,
2013-05-18 07:30:00,24.2,15.6,0.00,ENE,75,10.3,-999.0,69,0.00,,,-99.99,,2013-05-18 15:30:00,
2013-05-18 07:35:00,24.3,15.1,0.00,ENE,70,20.7,-999.0,67,0.00,,,-99.99,,2013-05-18 15:35:00,
2013-05-18 07:40:00,24.4,15.4,0.00,ENE,70,11.2,-999.0,68,0.00,,,-99.99,,2013-05-18 15:40:00,
2013-05-18 07:45:00,24.4,15.1,0.00,East,91,13.3,-999.0,67,0.00,,,-99.99,,2013-05-18 15:45:00,
2013-05-18 07:50:00,24.8,15.1,0.00,ESE,114,13.0,-999.0,66,0.00,,,-99.99,,2013-05-18 15:50:00,
2013-05-18 07:55:00,24.6,14.1,0.00,ENE,72,22.9,-999.0,63,0.00,,,-99.99,,2013-05-18 15:55:00,
2013-05-18 08:00:00,24.6,14.1,0.00,ENE,73,7.4,-999.0,63,0.00,,,-99.99,,2013-05-18 16:00:00,
2013-05-18 08:05:00,24.4,13.0,0.00,ESE,112,12.5,-999.0,61,0.00,,,-99.99,,2013-05-18 16:05:00,
2013-05-18 08:10:00,24.4,12.0,0.00,East,82,12.4,-999.0,58,0.00,,,-99.99,,2013-05-18 16:10:00,
2013-05-18 08:15:00,24.2,11.1,0.00,ENE,68,24.0,-999.0,56,0.00,,,-99.99,,2013-05-18 16:15:00,
2013-05-18 08:20:00,24.0,10.3,0.00,ESE,106,16.0,-999.0,55,0.00,,,-99.99,,2013-05-18 16:20:00,
2013-05-18 08:25:00,24.1,10.9,0.00,ENE,75,30.2,-999.0,56,0.00,,,-99.99,,2013-05-18 16:25:00,
2013-05-18 08:30:00,24.3,11.6,0.00,East,80,8.9,-999.0,57,0.00,,,-99.99,,2013-05-18 16:30:00,
2013-05-18 08:35:00,24.5,12.7,0.00,East,84,23.2,-999.0,60,0.00,,,-99.99,,2013-05-18 16:35:00,
2013-05-18 08:40:00,24.6,12.9,0.00,East,97,20.2,-999.0,60,0.00,,,-99.99,,2013-05-18 16:40:00,
2013-05-18 08:45:00,25.6,14.1,0.00,ENE,74,7.8,-999.0,61,0.00,,,-99.99,,2013-05-18 16:45:00,
2013-05-18 08:50:00,25.3,13.3,0.00,East,80,18.2,-999.0,59,0.00,,,-99.99,,2013-05-18 16:50:00,
2013-05-18 08:55:00,25.5,13.8,0.00,ENE,58,10.0,-999.0,60,0.00,,,-99.99,,2013-05-18 16:55:00,
2013-05-18 09:00:00,25.6,14.0,0.00,SE,125,13.2,-999.0,61,0.00,,,-99.99,,2013-05-18 17:00:00,
2013-05-18 09:05:00,26.5,14.7,0.00,ENE,67,19.0,-999.0,60,0.00,,,-99.99,,2013-05-18 17:05:00,
2013-05-18 09:10:00,26.0,14.2,0.00,ENE,74,12.9,-999.0,60,0.00,,,-99.99,,2013-05-18 17:10:00,
2013-05-18 09:15:00,25.6,14.5,0.00,ENE,77,10.0,-999.0,62,0.00,,,-99.99,,2013-05-18 17:15:00,
2013-05-18 09:20:00,25.4,14.4,0.00,ENE,71,9.9,-999.0,62,0.00,,,-99.99,,2013-05-18 17:20:00,
2013-05-18 09:25:00,25.0,13.4,0.00,ENE,78,15.6,-999.0,60,0.00,,,-99.99,,2013-05-18 17:25:00,
2013-05-18 09:30:00,25.5,14.0,0.00,East,96,10.4,-999.0,61,0.00,,,-99.99,,2013-05-18 17:30:00,
2013-05-18 09:35:00,25.6,13.8,0.00,East,85,19.9,-999.0,60,0.00,,,-99.99,,2013-05-18 17:35:00,
2013-05-18 09:40:00,25.9,14.6,0.00,ENE,73,9.3,-999.0,61,0.00,,,-99.99,,2013-05-18 17:40:00,
2013-05-18 09:45:00,26.1,14.2,0.00,East,80,13.2,-999.0,60,0.00,,,-99.99,,2013-05-18 17:45:00,
2013-05-18 09:50:00,25.8,13.4,0.00,ENE,69,15.5,-999.0,58,0.00,,,-99.99,,2013-05-18 17:50:00,
2013-05-18 09:55:00,25.8,13.9,0.00,ENE,65,3.4,-999.0,60,0.00,,,-99.99,,2013-05-18 17:55:00,
2013-05-18 10:00:00,25.5,12.9,0.00,ENE,73,20.6,-999.0,58,0.00,,,-99.99,,2013-05-18 18:00:00,
2013-05-18 10:05:00,25.5,12.2,0.00,East,83,19.2,-999.0,56,0.00,,,-99.99,,2013-05-18 18:05:00,
2013-05-18 10:10:00,25.9,12.4,0.00,East,81,11.9,-999.0,56,0.00,,,-99.99,,2013-05-18 18:10:00,
2013-05-18 10:15:00,25.6,11.9,0.00,East,98,12.1,-999.0,55,0.00,,,-99.99,,2013-05-18 18:15:00,
2013-05-18 10:20:00,25.6,12.2,0.00,ESE,105,8.8,-999.0,56,0.00,,,-99.99,,2013-05-18 18:20:00,
2013-05-18 10:25:00,26.2,12.5,0.00,ENE,78,11.0,-999.0,55,0.00,,,-99.99,,2013-05-18 18:25:00,
2013-05-18 10:30:00,26.2,13.0,0.00,ESE,110,8.8,-999.0,56,0.00,,,-99.99,,2013-05-18 18:30:00,
2013-05-18 10:35:00,26.7,13.1,0.00,SE,126,13.1,-999.0,56,0.00,,,-99.99,,2013-05-18 18:35:00,
2013-05-18 10:40:00,26.5,13.0,0.00,ENE,66,15.7,-999.0,56,0.00,,,-99.99,,2013-05-18 18:40:00,
2013-05-18 10:45:00,26.9,13.2,0.00,ESE,112,15.4,-999.0,55,0.00,,,-99.99,,2013-05-18 18:45:00,
2013-05-18 10:50:00,26.5,12.9,0.00,ENE,61,8.8,-999.0,56,0.00,,,-99.99,,2013-05-18 18:50:00,
2013-05-18 10:55:00,27.1,13.4,0.00,ENE,66,4.4,-999.0,55,0.00,,,-99.99,,2013-05-18 18:55:00,
2013-05-18 11:00:00,27.0,12.3,0.00,ENE,69,9.3,-999.0,53,0.00,,,-99.99,,2013-05-18 19:00:00,
2013-05-18 11:05:00,26.7,12.1,0.00,ENE,76,9.2,-999.0,53,0.00,,,-99.99,,2013-05-18 19:05:00,
2013-05-18 11:11:00,27.0,12.5,0.00,East,94,5.2,-999.0,53,0.00,,,-99.99,,2013-05-18 19:11:00,
2013-05-18 11:16:00,27.2,12.3,0.00,ENE,59,11.1,-999.0,53,0.00,,,-99.99,,2013-05-18 19:16:00,
2013-05-18 11:21:00,27.6,11.7,0.00,East,91,8.2,-999.0,50,0.00,,,-99.99,,2013-05-18 19:21:00,
2013-05-18 11:26:00,27.8,13.0,0.00,NE,49,10.8,-999.0,53,0.00,,,-99.99,,2013-05-18 19:26:00,
2013-05-18 11:31:00,27.7,10.9,0.00,ESE,111,10.4,-999.0,48,0.00,,,-99.99,,2013-05-18 19:31:00,
2013-05-18 11:36:00,28.0,11.1,0.00,ENE,72,18.5,-999.0,48,0.00,,,-99.99,,2013-05-18 19:36:00,
2013-05-18 11:41:00,27.6,12.2,0.00,ENE,77,26.3,-999.0,51,0.00,,,-99.99,,2013-05-18 19:41:00,
2013-05-18 11:46:00,28.4,13.2,0.00,East,92,3.3,-999.0,52,0.00,,,-99.99,,2013-05-18 19:46:00,
2013-05-18 11:51:00,28.3,12.9,0.00,East,100,17.8,-999.0,52,0.00,,,-99.99,,2013-05-18 19:51:00,
2013-05-18 11:56:00,28.0,13.1,0.00,ENE,72,17.8,-999.0,53,0.00,,,-99.99,,2013-05-18 19:56:00,
2013-05-18 12:01:00,28.0,12.7,0.00,NE,50,9.6,-999.0,52,0.00,,,-99.99,,2013-05-18 20:01:00,
2013-05-18 12:06:00,27.6,12.2,0.00,NE,37,7.6,-999.0,51,0.00,,,-99.99,,2013-05-18 20:06:00,
2013-05-18 12:11:00,28.4,12.6,0.00,ENE,76,8.9,-999.0,51,0.00,,,-99.99,,2013-05-18 20:11:00,
2013-05-18 12:16:00,27.9,12.3,0.00,ENE,78,5.4,-999.0,51,0.00,,,-99.99,,2013-05-18 20:16:00,
2013-05-18 12:21:00,28.3,10.5,0.00,ENE,75,7.5,-999.0,46,0.00,,,-99.99,,2013-05-18 20:21:00,
2013-05-18 15:17:00,31.6,11.3,0.00,ENE,63,6.8,-999.0,42,0.00,,,-99.99,,2013-05-18 23:17:00,
2013-05-18 15:22:00,31.8,11.1,0.00,ENE,72,8.6,-999.0,41,0.00,,,-99.99,,2013-05-18 23:22:00,
2013-05-18 15:27:00,30.6,9.3,0.00,SE,144,13.9,-999.0,40,0.07,,,-99.99,,2013-05-18 23:27:00,
2013-05-18 15:32:00,30.8,8.8,0.00,East,87,17.5,-999.0,39,0.09,,,-99.99,,2013-05-18 23:32:00,
2013-05-18 15:37:00,31.2,9.7,0.00,ENE,74,21.7,-999.0,40,0.09,,,-99.99,,2013-05-18 23:37:00,
2013-05-18 15:42:00,31.2,11.0,0.00,ESE,113,12.5,-999.0,42,0.09,,,-99.99,,2013-05-18 23:42:00,
2013-05-18 15:47:00,31.2,11.0,0.00,East,90,11.4,-999.0,42,0.09,,,-99.99,,2013-05-18 23:47:00,
2013-05-18 15:52:00,31.4,10.5,0.00,ENE,71,19.3,-999.0,41,0.09,,,-99.99,,2013-05-18 23:52:00,
2013-05-18 15:57:00,31.4,11.3,0.00,East,92,13.3,-999.0,42,0.09,,,-99.99,,2013-05-18 23:57:00,
2013-05-18 16:03:00,31.0,9.6,0.00,ENE,61,16.6,-999.0,40,0.00,,,-99.99,,2013-05-19 00:03:00,
2013-05-18 16:08:00,30.9,9.6,0.00,East,89,9.2,-999.0,40,0.00,,,-99.99,,2013-05-19 00:08:00,
2013-05-18 16:13:00,31.2,10.7,0.00,ENE,76,11.9,-999.0,41,0.00,,,-99.99,,2013-05-19 00:13:00,
2013-05-18 16:18:00,31.2,8.8,0.00,ENE,73,18.9,-999.0,38,0.00,,,-99.99,,2013-05-19 00:18:00,
2013-05-18 16:23:00,31.7,9.9,0.00,ENE,69,14.2,-999.0,39,0.00,,,-99.99,,2013-05-19 00:23:00,
2013-05-18 16:29:00,31.6,10.2,0.00,ENE,76,10.3,-999.0,40,0.00,,,-99.99,,2013-05-19 00:29:00,
2013-05-18 16:34:00,31.2,10.0,0.00,NE,45,1.6,-999.0,40,0.02,,,-99.99,,2013-05-19 00:34:00,
2013-05-18 16:39:00,32.0,10.5,0.00,ESE,102,16.6,-999.0,40,0.02,,,-99.99,,2013-05-19 00:39:00,
2013-05-18 16:44:00,32.0,10.5,0.00,NE,46,9.0,-999.0,40,0.02,,,-99.99,,2013-05-19 00:44:00,
2013-05-18 16:49:00,32.1,11.1,0.00,East,96,7.2,-999.0,41,0.02,,,-99.99,,2013-05-19 00:49:00,
2013-05-18 16:54:00,32.7,11.4,0.00,ESE,107,3.7,-999.0,40,0.02,,,-99.99,,2013-05-19 00:54:00,
2013-05-18 17:00:00,32.4,10.4,0.00,ENE,73,7.6,-999.0,39,0.00,,,-99.99,,2013-05-19 01:00:00,
2013-05-18 17:04:00,32.7,11.3,0.00,ENE,76,17.4,-999.0,40,0.00,,,-99.99,,2013-05-19 01:04:00,
2013-05-18 17:09:00,32.4,11.6,0.00,NE,44,15.7,-999.0,41,0.00,,,-99.99,,2013-05-19 01:09:00,
2013-05-18 17:14:00,32.4,12.3,0.00,NE,46,12.9,-999.0,42,0.00,,,-99.99,,2013-05-19 01:14:00,
2013-05-18 17:19:00,33.3,11.4,0.00,SE,126,10.5,-999.0,39,0.00,,,-99.99,,2013-05-19 01:19:00,
2013-05-18 17:24:00,33.0,12.9,0.00,ENE,68,2.8,-999.0,42,0.00,,,-99.99,,2013-05-19 01:24:00,
2013-05-18 17:29:00,33.5,12.6,0.00,NNE,18,4.8,-999.0,41,0.00,,,-99.99,,2013-05-19 01:29:00,
2013-05-18 17:34:00,33.0,12.7,0.00,ENE,69,12.1,-999.0,42,0.00,,,-99.99,,2013-05-19 01:34:00,
2013-05-18 17:39:00,33.2,13.6,0.00,ESE,102,5.1,-999.0,44,0.00,,,-99.99,,2013-05-19 01:39:00,
2013-05-18 17:44:00,32.5,11.1,0.00,ENE,67,5.6,-999.0,40,0.00,,,-99.99,,2013-05-19 01:44:00,
2013-05-18 17:49:00,33.0,12.3,0.00,NNE,32,0.4,-999.0,41,0.00,,,-99.99,,2013-05-19 01:49:00,
2013-05-18 17:54:00,33.0,9.7,0.00,ENE,60,14.8,-999.0,37,0.00,,,-99.99,,2013-05-19 01:54:00,
2013-05-18 18:00:00,32.4,10.3,0.00,SE,135,11.5,-999.0,39,0.00,,,-99.99,,2013-05-19 02:00:00,
2013-05-18 18:04:00,32.1,9.2,0.00,NNE,14,9.9,-999.0,37,0.00,,,-99.99,,2013-05-19 02:04:00,
2013-05-18 18:09:00,32.7,9.8,0.00,NE,47,8.7,-999.0,37,0.00,,,-99.99,,2013-05-19 02:09:00,
2013-05-18 18:14:00,32.0,8.4,0.00,ENE,64,16.4,-999.0,36,0.00,,,-99.99,,2013-05-19 02:14:00,
2013-05-18 18:19:00,33.2,11.4,0.00,NE,41,6.7,-999.0,39,0.00,,,-99.99,,2013-05-19 02:19:00,
2013-05-18 18:24:00,33.3,12.6,0.00,ENE,63,3.6,-999.0,41,0.00,,,-99.99,,2013-05-19 02:24:00,
2013-05-18 18:29:00,32.4,9.1,0.00,ESE,102,15.8,-999.0,37,0.00,,,-99.99,,2013-05-19 02:29:00,
2013-05-18 18:34:00,33.0,10.9,0.00,East,81,16.1,-999.0,39,0.00,,,-99.99,,2013-05-19 02:34:00,
2013-05-18 18:39:00,32.4,11.5,0.00,ENE,68,13.9,-999.0,41,0.00,,,-99.99,,2013-05-19 02:39:00,
2013-05-18 18:44:00,32.1,9.9,0.00,ENE,59,23.6,-999.0,38,0.00,,,-99.99,,2013-05-19 02:44:00,
2013-05-18 18:49:00,32.5,10.0,0.00,ENE,59,21.0,-999.0,38,0.00,,,-99.99,,2013-05-19 02:49:00,
2013-05-18 18:54:00,32.7,10.5,0.00,ENE,77,14.3,-999.0,39,0.00,,,-99.99,,2013-05-19 02:54:00,
2013-05-18 19:00:00,32.4,9.7,0.00,East,94,11.3,-999.0,38,0.00,,,-99.99,,2013-05-19 03:00:00,
2013-05-18 19:04:00,33.0,10.6,0.00,ENE,59,14.4,-999.0,38,0.00,,,-99.99,,2013-05-19 03:04:00,
2013-05-18 19:09:00,32.7,11.4,0.00,ESE,102,10.5,-999.0,40,0.00,,,-99.99,,2013-05-19 03:09:00,
2013-05-18 19:14:00,32.7,11.9,0.00,SE,124,6.1,-999.0,41,0.00,,,-99.99,,2013-05-19 03:14:00,
2013-05-18 19:19:00,32.8,12.7,0.00,ENE,61,7.8,-999.0,42,0.00,,,-99.99,,2013-05-19 03:19:00,
2013-05-18 19:24:00,33.1,13.4,0.00,ENE,77,5.9,-999.0,43,0.00,,,-99.99,,2013-05-19 03:24:00,
2013-05-18 19:29:00,33.2,11.9,0.00,ENE,78,9.0,-999.0,40,0.00,,,-99.99,,2013-05-19 03:29:00,
2013-05-18 19:34:00,33.5,11.9,0.00,ENE,70,9.4,-999.0,40,0.00,,,-99.99,,2013-05-19 03:34:00,
2013-05-18 19:39:00,32.9,12.3,0.00,ENE,57,13.6,-999.0,42,0.00,,,-99.99,,2013-05-19 03:39:00,
2013-05-18 19:44:00,33.4,12.7,0.00,ENE,63,14.3,-999.0,41,0.00,,,-99.99,,2013-05-19 03:44:00,
2013-05-18 19:49:00,32.8,11.0,0.00,NE,56,13.6,-999.0,39,0.00,,,-99.99,,2013-05-19 03:49:00,
2013-05-18 19:54:00,33.3,11.6,0.00,ENE,75,8.3,-999.0,40,0.00,,,-99.99,,2013-05-19 03:54:00,
2013-05-18 20:00:00,33.0,10.6,0.00,ENE,72,15.3,-999.0,38,0.00,,,-99.99,,2013-05-19 04:00:00,
2013-05-18 20:02:00,32.9,11.1,0.00,ENE,66,14.7,-999.0,39,0.00,,,-99.99,,2013-05-19 04:02:00,
2013-05-18 20:03:00,32.9,11.7,0.00,ENE,77,14.3,-999.0,40,0.00,,,-99.99,,2013-05-19 04:03:00,
2013-05-18 20:04:00,33.0,11.1,0.00,ENE,59,15.7,-999.0,39,0.00,,,-99.99,,2013-05-19 04:04:00,
2013-05-18 20:10:00,32.7,12.4,0.00,ENE,75,9.6,-999.0,42,0.00,,,-99.99,,2013-05-19 04:10:00,
2013-05-18 20:12:00,32.6,11.1,0.00,ENE,71,14.2,-999.0,40,0.00,,,-99.99,,2013-05-19 04:12:00,
2013-05-18 20:17:00,32.6,11.3,0.00,NE,41,19.2,-999.0,40,0.00,,,-99.99,,2013-05-19 04:17:00,
2013-05-18 20:22:00,32.9,12.5,0.00,East,83,8.1,-999.0,42,0.00,,,-99.99,,2013-05-19 04:22:00,
2013-05-18 20:27:00,32.7,11.8,0.00,East,82,14.8,-999.0,41,0.00,,,-99.99,,2013-05-19 04:27:00,
2013-05-18 20:32:00,32.7,11.1,0.00,East,82,14.1,-999.0,40,0.00,,,-99.99,,2013-05-19 04:32:00,
2013-05-18 20:37:00,32.9,11.8,0.00,ENE,70,9.9,-999.0,41,0.00,,,-99.99,,2013-05-19 04:37:00,
2013-05-18 20:42:00,32.7,12.0,0.00,NE,50,14.7,-999.0,41,0.00,,,-99.99,,2013-05-19 04:42:00,
2013-05-18 20:47:00,32.3,11.4,0.00,ENE,73,14.7,-999.0,41,0.00,,,-99.99,,2013-05-19 04:47:00,
2013-05-18 20:52:00,32.2,10.6,0.00,ENE,64,15.4,-999.0,39,0.00,,,-99.99,,2013-05-19 04:52:00,
2013-05-18 20:57:00,32.2,12.1,0.00,East,85,7.0,-999.0,42,0.00,,,-99.99,,2013-05-19 04:57:00,
2013-05-18 21:02:00,32.4,12.9,0.00,East,96,9.9,-999.0,43,0.00,,,-99.99,,2013-05-19 05:02:00,
2013-05-18 21:07:00,32.1,12.5,0.00,ENE,75,9.6,-999.0,43,0.00,,,-99.99,,2013-05-19 05:07:00,
2013-05-18 21:12:00,31.8,11.7,0.00,East,81,14.2,-999.0,42,0.00,,,-99.99,,2013-05-19 05:12:00,
2013-05-18 21:17:00,31.8,11.6,0.00,ENE,62,22.7,-999.0,42,0.00,,,-99.99,,2013-05-19 05:17:00,
2013-05-18 21:23:00,31.6,12.0,0.00,East,89,14.3,-999.0,43,0.00,,,-99.99,,2013-05-19 05:23:00,
2013-05-18 21:28:00,31.6,13.2,0.00,ENE,72,19.0,-999.0,45,0.00,,,-99.99,,2013-05-19 05:28:00,
2013-05-18 21:33:00,31.6,13.4,0.00,ENE,75,17.5,-999.0,46,0.00,,,-99.99,,2013-05-19 05:33:00,
2013-05-18 21:39:00,31.4,14.2,0.00,SE,130,9.2,-999.0,48,0.00,,,-99.99,,2013-05-19 05:39:00,
2013-05-18 21:44:00,31.4,14.6,0.00,ENE,64,12.2,-999.0,49,0.00,,,-99.99,,2013-05-19 05:44:00,
2013-05-18 21:49:00,31.3,14.9,0.00,East,81,8.1,-999.0,50,0.00,,,-99.99,,2013-05-19 05:49:00,
2013-05-18 21:54:00,31.1,15.4,0.00,ESE,106,4.7,-999.0,51,0.00,,,-99.99,,2013-05-19 05:54:00,
2013-05-18 22:00:00,31.2,15.1,0.00,NE,51,7.4,-999.0,50,0.00,,,-99.99,,2013-05-19 06:00:00,
2013-05-18 22:04:00,31.2,14.6,0.00,East,89,5.7,-999.0,49,0.00,,,-99.99,,2013-05-19 06:04:00,
2013-05-18 22:09:00,31.0,14.5,0.00,ENE,76,9.8,-999.0,49,0.00,,,-99.99,,2013-05-19 06:09:00,
2013-05-18 22:14:00,31.1,14.7,0.00,ENE,70,10.8,-999.0,50,0.00,,,-99.99,,2013-05-19 06:14:00,
2013-05-18 22:19:00,30.9,14.4,0.00,ENE,70,15.9,-999.0,49,0.00,,,-99.99,,2013-05-19 06:19:00,
2013-05-18 22:24:00,31.0,14.3,0.00,ENE,70,12.1,-999.0,49,0.00,,,-99.99,,2013-05-19 06:24:00,
2013-05-18 22:29:00,31.0,14.4,0.00,ENE,73,12.3,-999.0,49,0.00,,,-99.99,,2013-05-19 06:29:00,
2013-05-18 22:34:00,30.7,14.3,0.00,East,94,2.4,-999.0,50,0.00,,,-99.99,,2013-05-19 06:34:00,
2013-05-18 22:39:00,30.9,13.9,0.00,ENE,76,15.5,-999.0,48,0.00,,,-99.99,,2013-05-19 06:39:00,
2013-05-18 22:44:00,30.7,13.7,0.00,ENE,69,5.7,-999.0,48,0.00,,,-99.99,,2013-05-19 06:44:00,
2013-05-18 22:49:00,30.7,13.7,0.00,ENE,68,10.2,-999.0,48,0.00,,,-99.99,,2013-05-19 06:49:00,
2013-05-18 22:54:00,30.5,14.0,0.00,East,87,11.2,-999.0,49,0.00,,,-99.99,,2013-05-19 06:54:00,
2013-05-18 23:00:00,30.5,14.3,0.00,ESE,104,10.3,-999.0,50,0.00,,,-99.99,,2013-05-19 07:00:00,
2013-05-18 23:04:00,30.4,13.5,0.00,ENE,74,18.0,-999.0,49,0.00,,,-99.99,,2013-05-19 07:04:00,
2013-05-18 23:09:00,30.6,14.2,0.00,East,87,8.3,-999.0,50,0.00,,,-99.99,,2013-05-19 07:09:00,
2013-05-18 23:14:00,30.6,13.9,0.00,East,92,9.6,-999.0,49,0.00,,,-99.99,,2013-05-19 07:14:00,
2013-05-18 23:19:00,30.5,13.7,0.00,ENE,75,8.9,-999.0,49,0.00,,,-99.99,,2013-05-19 07:19:00,
2013-05-18 23:24:00,30.6,13.9,0.00,ENE,75,5.3,-999.0,49,0.00,,,-99.99,,2013-05-19 07:24:00,
2013-05-18 23:29:00,30.2,13.8,0.00,ENE,70,4.0,-999.0,49,0.00,,,-99.99,,2013-05-19 07:29:00,
2013-05-18 23:34:00,30.3,13.6,0.00,ENE,58,8.1,-999.0,49,0.00,,,-99.99,,2013-05-19 07:34:00,
2013-05-18 23:39:00,30.4,13.2,0.00,East,80,8.6,-999.0,48,0.00,,,-99.99,,2013-05-19 07:39:00,
2013-05-18 23:44:00,30.3,13.8,0.00,NNE,24,5.5,-999.0,49,0.00,,,-99.99,,2013-05-19 07:44:00,
2013-05-18 23:49:00,30.3,13.7,0.00,NE,50,3.5,-999.0,49,0.00,,,-99.99,,2013-05-19 07:49:00,
2013-05-18 23:54:00,30.3,13.6,0.00,ENE,59,9.5,-999.0,49,0.00,,,-99.99,,2013-05-19 07:54:00,